TimeCDT,TemperatureF,Dew PointF,Humidity,Sea Level PressureIn,VisibilityMPH,Wind Direction,Wind SpeedMPH,Gust SpeedMPH,PrecipitationIn,Events,Conditions,WindDirDegrees,DateUTC
12:15 AM,51.1,49.6,95,30.12,10.0,North,9.2,-,N/A,,Overcast,360,2013-05-06 05:15:00
12:35 AM,50.9,49.6,95,30.12,10.0,North,10.4,-,N/A,,Overcast,360,2013-05-06 05:35:00
12:55 AM,51.1,49.6,95,30.12,10.0,North,6.9,-,N/A,,Overcast,360,2013-05-06 05:55:00
1:15 AM,51.1,49.6,95,30.12,5.0,North,5.8,-,N/A,,Overcast,360,2013-05-06 06:15:00
1:35 AM,51.1,49.5,94,30.12,4.0,North,6.9,-,N/A,,Overcast,360,2013-05-06 06:35:00
1:55 AM,50.9,49.3,94,30.11,3.0,NNE,9.2,-,N/A,,Overcast,20,2013-05-06 06:55:00
2:15 AM,50.5,49.3,95,30.11,3.0,NNE,9.2,-,N/A,,Overcast,20,2013-05-06 07:15:00
2:35 AM,50.4,49.3,96,30.11,2.5,NNE,8.1,-,N/A,,Overcast,20,2013-05-06 07:35:00
2:55 AM,50.0,49.1,97,30.10,2.5,NNE,8.1,-,N/A,,Overcast,30,2013-05-06 07:55:00
3:15 AM,50.0,49.1,97,30.10,4.0,NNE,8.1,-,N/A,,Overcast,20,2013-05-06 08:15:00
3:35 AM,50.0,49.1,97,30.10,4.0,North,9.2,-,N/A,,Overcast,10,2013-05-06 08:35:00
3:55 AM,50.0,49.1,97,30.11,3.0,North,8.1,-,N/A,,Overcast,10,2013-05-06 08:55:00
4:15 AM,50.0,49.1,97,30.11,3.0,North,5.8,-,N/A,,Overcast,10,2013-05-06 09:15:00
4:35 AM,50.0,49.1,97,30.11,3.0,North,8.1,-,N/A,,Overcast,350,2013-05-06 09:35:00
4:55 AM,49.6,49.1,98,30.11,2.5,North,8.1,-,N/A,,Overcast,350,2013-05-06 09:55:00
5:15 AM,49.5,49.1,99,30.11,2.5,North,9.2,-,N/A,,Overcast,360,2013-05-06 10:15:00
5:35 AM,49.3,48.7,98,30.11,2.5,North,9.2,-,N/A,,Overcast,360,2013-05-06 10:35:00
5:55 AM,49.1,48.6,98,30.12,2.5,North,6.9,-,N/A,,Overcast,360,2013-05-06 10:55:00
6:15 AM,49.1,48.6,98,30.12,2.0,North,8.1,-,N/A,,Overcast,360,2013-05-06 11:15:00
6:35 AM,48.6,48.2,99,30.13,2.0,North,8.1,-,N/A,,Overcast,350,2013-05-06 11:35:00
6:55 AM,48.4,48.2,99,30.13,1.2,North,6.9,-,N/A,,Overcast,360,2013-05-06 11:55:00
7:15 AM,48.4,48.2,99,30.14,1.0,North,8.1,-,N/A,,Overcast,10,2013-05-06 12:15:00
7:35 AM,48.2,48.2,100,30.14,1.0,NNE,8.1,-,N/A,,Overcast,20,2013-05-06 12:35:00
7:55 AM,48.2,48.2,100,30.14,0.8,NNE,9.2,-,N/A,,Overcast,20,2013-05-06 12:55:00
8:15 AM,48.4,48.4,100,30.14,0.8,NNE,6.9,-,N/A,,Overcast,20,2013-05-06 13:15:00
8:35 AM,48.4,48.4,100,30.15,0.8,North,9.2,-,N/A,,Overcast,10,2013-05-06 13:35:00
8:55 AM,48.6,48.6,100,30.15,1.2,North,8.1,-,N/A,,Overcast,360,2013-05-06 13:55:00
9:15 AM,49.1,49.1,100,30.15,1.8,North,8.1,-,N/A,,Overcast,360,2013-05-06 14:15:00
9:35 AM,49.8,49.5,99,30.15,2.0,NNE,5.8,-,N/A,,Overcast,20,2013-05-06 14:35:00
9:55 AM,50.0,49.5,98,30.15,2.0,North,6.9,-,N/A,,Overcast,10,2013-05-06 14:55:00
10:15 AM,49.6,49.1,98,30.15,2.5,North,8.1,-,N/A,,Overcast,350,2013-05-06 15:15:00
10:35 AM,50.2,49.3,97,30.15,2.5,North,5.8,-,N/A,,Overcast,10,2013-05-06 15:35:00
10:55 AM,50.7,49.8,97,30.15,2.0,NNE,9.2,-,N/A,,Overcast,20,2013-05-06 15:55:00
11:15 AM,50.5,49.5,96,30.16,1.8,NNW,6.9,-,N/A,,Overcast,340,2013-05-06 16:15:00
11:35 AM,51.1,49.8,95,30.15,2.0,North,8.1,-,N/A,,Overcast,360,2013-05-06 16:35:00
11:55 AM,51.8,50.0,94,30.15,2.0,North,5.8,-,N/A,,Overcast,350,2013-05-06 16:55:00
12:15 PM,52.3,50.2,92,30.14,2.0,North,4.6,-,N/A,,Overcast,350,2013-05-06 17:15:00
12:35 PM,52.7,50.7,93,30.14,2.0,NNW,8.1,-,N/A,,Overcast,340,2013-05-06 17:35:00
12:55 PM,53.2,50.7,91,30.14,2.0,NNW,6.9,-,N/A,,Overcast,340,2013-05-06 17:55:00
1:15 PM,54.7,50.7,86,30.13,4.0,North,5.8,-,N/A,,Overcast,360,2013-05-06 18:15:00
1:35 PM,55.2,50.9,85,30.13,5.0,North,6.9,-,N/A,,Overcast,360,2013-05-06 18:35:00
1:55 PM,56.7,51.1,82,30.13,5.0,NNW,6.9,-,N/A,,Haze,340,2013-05-06 18:55:00
2:15 PM,58.1,50.9,77,30.12,5.0,North,4.6,-,N/A,,Haze,350,2013-05-06 19:15:00
2:35 PM,59.2,51.3,75,30.12,7.0,NW,4.6,-,N/A,,Scattered Clouds,320,2013-05-06 19:35:00
2:55 PM,60.8,51.4,71,30.11,7.0,North,4.6,-,N/A,,Scattered Clouds,10,2013-05-06 19:55:00
3:15 PM,61.3,51.4,70,30.10,7.0,North,4.6,-,N/A,,Scattered Clouds,360,2013-05-06 20:15:00
3:35 PM,63.0,52.0,67,30.09,5.0,NNE,6.9,-,N/A,,Haze,20,2013-05-06 20:35:00
3:55 PM,63.5,52.0,66,30.08,5.0,North,4.6,-,N/A,,Haze,350,2013-05-06 20:55:00
4:15 PM,64.6,51.8,63,30.07,5.0,North,5.8,-,N/A,,Haze,10,2013-05-06 21:15:00
4:35 PM,65.3,52.3,63,30.06,5.0,Calm,Calm,-,N/A,,Haze,0,2013-05-06 21:35:00
4:55 PM,65.3,52.0,62,30.05,5.0,Calm,Calm,-,N/A,,Haze,0,2013-05-06 21:55:00
5:15 PM,66.2,52.2,61,30.05,7.0,NNE,5.8,-,N/A,,Clear,30,2013-05-06 22:15:00
5:55 PM,65.5,51.1,60,30.04,7.0,Calm,Calm,-,N/A,,Clear,0,2013-05-06 22:55:00
6:15 PM,65.7,51.1,59,30.04,7.0,Calm,Calm,-,N/A,,Clear,0,2013-05-06 23:15:00
6:35 PM,65.3,51.6,61,30.04,7.0,Calm,Calm,-,N/A,,Clear,0,2013-05-06 23:35:00
6:55 PM,65.3,52.3,63,30.04,7.0,NE,3.5,-,N/A,,Clear,50,2013-05-06 23:55:00
7:15 PM,64.6,51.8,63,30.04,7.0,Calm,Calm,-,N/A,,Clear,0,2013-05-07 00:15:00
7:35 PM,63.7,52.5,67,30.04,7.0,Calm,Calm,-,N/A,,Clear,0,2013-05-07 00:35:00
7:55 PM,62.8,52.3,69,30.05,7.0,Calm,Calm,-,N/A,,Clear,0,2013-05-07 00:55:00
8:15 PM,62.1,51.1,67,30.05,7.0,Calm,Calm,-,N/A,,Clear,0,2013-05-07 01:15:00
8:35 PM,60.8,51.3,71,30.05,7.0,Calm,Calm,-,N/A,,Clear,0,2013-05-07 01:35:00
8:55 PM,60.1,51.1,72,30.06,7.0,Calm,Calm,-,N/A,,Clear,0,2013-05-07 01:55:00
9:15 PM,59.0,50.9,74,30.07,7.0,Calm,Calm,-,N/A,,Clear,0,2013-05-07 02:15:00
9:35 PM,59.5,51.4,75,30.07,7.0,Calm,Calm,-,N/A,,Clear,0,2013-05-07 02:35:00
9:55 PM,58.5,50.9,76,30.08,7.0,Calm,Calm,-,N/A,,Clear,0,2013-05-07 02:55:00
10:15 PM,57.7,50.9,78,30.08,7.0,SSW,4.6,-,N/A,,Clear,210,2013-05-07 03:15:00
10:35 PM,56.8,50.7,80,30.08,5.0,SSW,3.5,-,N/A,,Haze,210,2013-05-07 03:35:00
10:55 PM,55.9,50.9,83,30.08,5.0,South,3.5,-,N/A,,Haze,190,2013-05-07 03:55:00
11:15 PM,55.8,51.4,85,30.08,5.0,SSW,4.6,-,N/A,,Clear,200,2013-05-07 04:15:00
11:35 PM,56.7,51.8,84,30.08,5.0,SSW,4.6,-,N/A,,Haze,210,2013-05-07 04:35:00
11:55 PM,55.4,50.7,84,30.08,5.0,SSW,3.5,-,N/A,,Clear,210,2013-05-07 04:55:00